Regional Weather Roundup
Issued by NWS

Home | Current Version | Previous Version | Text Only | Print | Product List | Glossary On
Versions: 1 2 3 4 5 6 7 8 9 10 11 12 13 14 15 16 17 18 19 20 21 22 23 24 25 26 27 28 29 30 31 32 33 34 35 36 37 38 39 40 41 42 43 44 45 46 47 48 49 50
000
ASUS43 KLSX 222007
RWRMO

WEATHER SUMMARY FOR MISSOURI
NATIONAL WEATHER SERVICE SPRINGFIELD MO
200 PM CST MON DEC 22 2014

NOTE: "FAIR" INDICATES FEW OR NO CLOUDS BELOW 12,000 FEET WITH NO
       SIGNIFICANT WEATHER AND/OR OBSTRUCTIONS TO VISIBILITY.
       CURRENT SKY AND/OR WEATHER CONDITIONS ARE NOT AVAILABLE FOR
       CHILLICOTHE AND FARMINGTON.

MOZ001>031-035>038-043-044-053-054-222100-
...NORTHERN AND WESTERN MISSOURI...

CITY           SKY/WX    TMP DP  RH WIND       PRES   REMARKS
KANSAS CTY INT LGT RAIN  45  45 100 S10       29.44F FOG
KANSAS C DTWN  CLOUDY    46  44  93 S6        29.45F
LEE`S SUMMIT   CLOUDY    45  43  93 S6        29.46F
ST JOSEPH      CLOUDY    45  43  93 S9        29.43F FOG
CHILLICOTHE      N/A     44  42  93 SE5       29.48F
KIRKSVILLE     LGT RAIN  42  41  96 SE9       29.50F FOG

$$
MOZ066>068-077>081-088>096-101>105-222100-
...SOUTHWEST MISSOURI...

CITY           SKY/WX    TMP DP  RH WIND       PRES   REMARKS
SPRINGFIELD    CLOUDY    47  45  93 S12       29.49F
JOPLIN         LGT RAIN  49  48  97 SW9       29.49F FOG

$$
MOZ032>034-039>042-045>050-055>058-069>072-222100-
...CENTRAL MISSOURI...

CITY           SKY/WX    TMP DP  RH WIND       PRES   REMARKS
COLUMBIA       LGT RAIN  47  46  97 SE10      29.50F FOG
JEFFERSON CITY CLOUDY    49  46  90 SE7       29.52F
ROLLA          LGT RAIN  46  44  93 SE9       29.51F
SEDALIA        CLOUDY    47  45  93 S8        29.48F FOG
WHITEMAN AFB   LGT RAIN  46  45  96 S9        29.47F
OSAGE BEACH    CLOUDY    48  45  87 S10       29.50F

$$
MOZ051-052-059>065-222100-
...EAST CENTRAL MISSOURI...

CITY           SKY/WX    TMP DP  RH WIND       PRES   REMARKS
ST LOUIS INTL  LGT RAIN  49  45  86 SE8       29.59F FOG
SPIRIT OF STL  LGT RAIN  47  45  93 E3        29.57F
ST CHARLES     RAIN      47  45  93 SE7       29.58F FOG

$$
MOZ072>076-082>087-097>100-106>115-222100-
...SOUTH CENTRAL AND SOUTHEAST MISSOURI...

CITY           SKY/WX    TMP DP  RH WIND       PRES   REMARKS
CAPE GIRARDEAU CLOUDY    50  49  96 SE12      29.62F FOG
FARMINGTON     CLOUDY    48  46  93 SE9       29.58F
POPLAR BLUFF   LGT RAIN  51  49  92 S10       29.59F FOG
WEST PLAINS    CLOUDY    48  46  93 S8        29.54F

$$


USA.gov is the U.S. government's official web portal to all federal, state and local government web resources and services.